User: anonymous   Login
Location: Abraham Lincoln Continuation High School
(33.9711°N, 117.3662°W)
Time: 21:13:25
(UTC+00:00)
Language:

Cosmos 1536 Rocket - Orbit

View from above orbital plane
View from above orbital plane
View from above satellite
View from above satellite

Ground track
Ground track

The orbit data is extracted from the following two-line orbital elements,

1 14700U 84013B   21127.15485711  .00000069  00000-0  54519-5 0  9997
2 14700  82.5358 270.1147 0018907 330.4915 202.4003 14.83326881 11486
Epoch (UTC): 07 May 2021 03:42:59
Eccentricity: 0.0018907
inclination: 82.5358°
perigee height: 605 km
apogee height: 632 km
right ascension of ascending node: 270.1147°
argument of perigee: 330.4915°
revolutions per day: 14.83326881
mean anomaly at epoch: 202.4003°
orbit number at epoch: 1148

The dashed part of the orbit path shows where the satellite is in the earth's shadow,  

DLR